Weather History for Indian Mountain, AK

Change the Weather History Date:

Saturday, September 14, 2013

  Actual Average Record
Temperature  
Mean Temperature 38 °F -  
Max Temperature 43 °F 46 °F 69 °F (2010)
Min Temperature 32 °F 33 °F 23 °F (1998)
Degree Days  
Heating Degree Days 28    
Moisture  
Dew Point 33 °F    
Average Humidity 81    
Maximum Humidity 93    
Minimum Humidity 65    
Precipitation  
Precipitation 0.00 in - - ()
Sea Level Pressure  
Sea Level Pressure 30.06 in    
Wind  
Wind Speed 4 mph (West)    
Max Wind Speed 9 mph    
Max Gust Speed 17 mph    
Visibility 10 miles    
Events Rain    
Averages and records for this station are not official NWS values.
T = Trace of Precipitation, MM = Missing Value Source: NWS Daily Summary

Daily Weather History Graph

Daily Weather History Graph

Search for Another Location

Airport:

Trip Planner

Search our weather history database for the weather conditions in past years. The results will help you decide how hot, cold, wet, or windy it might be!

Date:

Astronomy

Sep. 14, 2013 Rise Set
Actual Time 7:33 AM AKDT 8:45 PM AKDT
Civil Twilight 6:40 AM AKDT 9:37 PM AKDT
Nautical Twilight 5:31 AM AKDT 10:45 PM AKDT
Astronomical Twilight 3:59 AM AKDT 12:14 AM AKDT
Moon 7:06 PM AKDT (9/14) 12:26 AM AKDT (9/14)
Length of Visible Light 14h 57m
Length of Day
13h 11m
Waxing Gibbous, 74% of the Moon is Illuminated
Sep 14
Waxing Gibbous
Sep 19
Full
Sep 26
Last Quarter
Oct 4
New
Oct 11
First Quarter

Hourly Weather History & Observations

Time (AKDT) Temp. Windchill Dew Point Humidity Pressure Visibility Wind Dir Wind Speed Gust Speed Precip Events Conditions
12:26 AM 41.0 °F 39.0 °F 35.6 °F 81% 29.98 in 10.0 mi Variable 3.5 mph - N/A   Partly Cloudy
12:55 AM 40.5 °F 38.4 °F 34.5 °F 79% 29.98 in 10.0 mi SSW 3.5 mph - N/A   Mostly Cloudy
1:46 AM 39.2 °F - 33.8 °F 81% 29.99 in 10.0 mi NW 2.3 mph - N/A   Scattered Clouds
1:55 AM 38.8 °F - 33.8 °F 82% 30.00 in 10.0 mi Variable 2.3 mph - N/A   Partly Cloudy
2:55 AM 36.1 °F - 33.1 °F 89% 30.01 in 10.0 mi Variable 2.3 mph - N/A   Partly Cloudy
3:55 AM 32.5 °F - 30.4 °F 92% 30.01 in 10.0 mi Variable 1.2 mph - N/A   Clear
4:46 AM 33.8 °F - 32.0 °F 93% 30.02 in 10.0 mi WSW 2.3 mph - N/A   Scattered Clouds
4:55 AM 34.2 °F - 32.0 °F 92% 30.02 in 10.0 mi Variable 1.2 mph - N/A Rain Light Rain
5:55 AM 34.5 °F - 32.5 °F 92% 30.02 in 10.0 mi Variable 1.2 mph - N/A   Clear
6:06 AM 35.6 °F - 33.8 °F 93% 30.02 in 10.0 mi Variable 2.3 mph - N/A   Partly Cloudy
6:55 AM 37.0 °F 32.4 °F 34.0 °F 89% 30.02 in 10.0 mi Variable 5.8 mph - N/A   Mostly Cloudy
7:06 AM 37.4 °F 32.1 °F 33.8 °F 87% 30.02 in 10.0 mi Variable 6.9 mph - N/A   Mostly Cloudy
10:46 AM 37.4 °F 33.8 °F 33.8 °F 87% 30.06 in 10.0 mi WNW 4.6 mph - N/A   Mostly Cloudy
10:55 AM 36.9 °F 33.1 °F 34.5 °F 91% 30.06 in 10.0 mi SW 4.6 mph - N/A   Mostly Cloudy
11:27 AM 37.4 °F 32.8 °F 33.8 °F 87% 30.07 in 10.0 mi WSW 5.8 mph - N/A   Mostly Cloudy
11:55 AM 37.0 °F 31.0 °F 34.0 °F 89% 30.08 in 10.0 mi WSW 8.1 mph - N/A   Mostly Cloudy
12:07 PM 37.4 °F 34.9 °F 33.8 °F 87% 30.08 in 10.0 mi SW 3.5 mph 13.8 mph N/A   Mostly Cloudy
12:27 PM 37.4 °F 32.1 °F 33.8 °F 87% 30.08 in 10.0 mi Variable 6.9 mph - N/A   Mostly Cloudy
12:55 PM 38.1 °F 34.6 °F 32.9 °F 81% 30.09 in 10.0 mi Variable 4.6 mph - N/A   Scattered Clouds
1:55 PM 40.3 °F 34.4 °F 32.5 °F 74% 30.09 in 10.0 mi North 9.2 mph 17.3 mph N/A   Clear
2:47 PM 42.8 °F 38.0 °F 32.0 °F 66% 30.10 in 10.0 mi NNW 8.1 mph 13.8 mph N/A   Partly Cloudy
2:55 PM 42.8 °F 39.3 °F 32.9 °F 68% 30.10 in 10.0 mi Variable 5.8 mph - N/A   Scattered Clouds
3:55 PM 43.3 °F 39.2 °F 32.2 °F 65% 30.11 in 10.0 mi Variable 6.9 mph - N/A   Partly Cloudy
4:55 PM 42.8 °F 38.6 °F 32.2 °F 66% 30.11 in 10.0 mi Variable 6.9 mph - N/A   Clear
5:55 PM 42.3 °F 39.4 °F 32.2 °F 67% 30.11 in 10.0 mi Variable 4.6 mph - N/A   Clear
6:55 PM 40.8 °F 36.9 °F 32.9 °F 73% 30.11 in 10.0 mi Variable 5.8 mph - N/A   Clear
7:55 PM 40.5 °F 35.1 °F 32.4 °F 73% 30.11 in 10.0 mi WNW 8.1 mph - N/A   Clear
8:55 PM 40.6 °F - 32.2 °F 72% 30.12 in 10.0 mi Variable 2.3 mph - N/A   Clear
9:55 PM 39.9 °F 34.5 °F 32.5 °F 75% 30.13 in 10.0 mi NNW 8.1 mph 16.1 mph N/A   Clear
10:55 PM 38.7 °F - 32.4 °F 78% 30.14 in 10.0 mi Variable 2.3 mph - N/A   Clear
11:55 PM 38.7 °F 33.6 °F 32.0 °F 77% 30.14 in 10.0 mi Variable 6.9 mph - N/A   Clear